When you browse on this site, cookies collect data to enhance your experience and personalize the content and advertising you see.
Visit our Privacy Policy to learn more. By continuing to use the site, you agree to this use of cookies and data.
  • In Hungary
  • List of Countries
  • For 7 days
  • Water Temperature
  • Weather Map
  • News
  • Weather Widgets
  • user-avatar
    Login

    Hourly Weather Shohino-Levchenki

    Today, 22 January, Wednesday

    Time Temperature Precipitation Wind Pressure Humidity
    00:00 -3°C° 0 mm 6 mps 732 mmHg 75%
    01:00 -2°C° 0 mm 5 mps 732 mmHg 76%
    02:00 -2°C° 0 mm 5 mps 731 mmHg 77%
    03:00 -2°C° 0 mm 5 mps 730 mmHg 78%
    04:00 -2°C° 0 mm 5 mps 729 mmHg 79%
    05:00 -2°C° 0 mm 5 mps 729 mmHg 80%
    06:00 -2°C° 0.2 mm 5 mps 728 mmHg 84%
    07:00 -2°C° 0.2 mm 5 mps 728 mmHg 87%
    08:00 -2°C° 0.2 mm 5 mps 727 mmHg 91%
    09:00 -2°C° 0.7 mm 5 mps 727 mmHg 90%
    10:00 -3°C° 0.7 mm 6 mps 726 mmHg 90%
    11:00 -3°C° 0.7 mm 6 mps 726 mmHg 89%
    12:00 -3°C° 0.2 mm 6 mps 726 mmHg 84%
    13:00 -3°C° 0.2 mm 6 mps 726 mmHg 78%
    14:00 -3°C° 0.2 mm 6 mps 726 mmHg 73%
    15:00 -2°C° 0 mm 5 mps 726 mmHg 75%
    16:00 -4°C° 0 mm 5 mps 727 mmHg 77%
    17:00 -5°C° 0 mm 5 mps 727 mmHg 80%
    18:00 -5°C° 0 mm 5 mps 728 mmHg 80%
    19:00 -5°C° 0 mm 5 mps 729 mmHg 80%
    20:00 -5°C° 0 mm 5 mps 729 mmHg 81%
    21:00 -6°C° 0.1 mm 5 mps 730 mmHg 80%
    22:00 -6°C° 0.1 mm 6 mps 730 mmHg 80%
    23:00 -6°C° 0.1 mm 6 mps 730 mmHg 79%

    Tomorrow, 23 January, Thursday

    Time Temperature Precipitation Wind Pressure Humidity
    00:00 -6°C° 0.1 mm 6 mps 731 mmHg 78%
    01:00 -8°C° 0.1 mm 6 mps 732 mmHg 77%
    02:00 -8°C° 0.1 mm 6 mps 733 mmHg 76%
    03:00 -8°C° 0 mm 6 mps 733 mmHg 72%
    04:00 -9°C° 0 mm 6 mps 734 mmHg 68%
    05:00 -9°C° 0 mm 6 mps 734 mmHg 64%
    06:00 -9°C° 0 mm 6 mps 735 mmHg 62%
    07:00 -9°C° 0 mm 6 mps 735 mmHg 61%
    08:00 -8°C° 0 mm 5 mps 736 mmHg 60%
    09:00 -8°C° 0 mm 6 mps 736 mmHg 58%
    10:00 -8°C° 0 mm 6 mps 736 mmHg 56%
    11:00 -6°C° 0 mm 6 mps 736 mmHg 55%
    12:00 -6°C° 0 mm 6 mps 737 mmHg 57%
    13:00 -5°C° 0 mm 6 mps 737 mmHg 59%
    14:00 -6°C° 0 mm 7 mps 737 mmHg 61%
    15:00 -5°C° 0 mm 6 mps 737 mmHg 63%
    16:00 -5°C° 0 mm 5 mps 737 mmHg 65%
    17:00 -6°C° 0 mm 5 mps 737 mmHg 67%
    18:00 -5°C° 0 mm 4 mps 737 mmHg 70%
    19:00 -5°C° 0 mm 4 mps 738 mmHg 74%
    20:00 -5°C° 0 mm 3 mps 738 mmHg 77%
    21:00 -5°C° 0 mm 3 mps 738 mmHg 79%
    22:00 -5°C° 0 mm 3 mps 738 mmHg 81%
    23:00 -4°C° 0 mm 2 mps 738 mmHg 84%

    Day after tomorrow, 24 January, Friday

    Time Temperature Precipitation Wind Pressure Humidity
    00:00 -5°C° 0 mm 3 mps 737 mmHg 86%
    01:00 -5°C° 0 mm 3 mps 737 mmHg 88%
    02:00 -5°C° 0 mm 3 mps 737 mmHg 91%
    03:00 -4°C° 0 mm 4 mps 736 mmHg 89%
    04:00 -4°C° 0 mm 4 mps 735 mmHg 88%
    05:00 -4°C° 0 mm 4 mps 734 mmHg 87%
    06:00 -5°C° 0.3 mm 5 mps 733 mmHg 90%
    07:00 -4°C° 0.3 mm 5 mps 732 mmHg 92%
    08:00 -4°C° 0.3 mm 5 mps 732 mmHg 95%
    09:00 -2°C° 0.4 mm 5 mps 731 mmHg 95%
    10:00 -1°C° 0.4 mm 5 mps 731 mmHg 96%
    11:00 0°C° 0.4 mm 4 mps 730 mmHg 96%
    12:00 0°C° 0.1 mm 5 mps 730 mmHg 95%
    13:00 +1°C° 0.1 mm 5 mps 730 mmHg 95%
    14:00 +1°C° 0.1 mm 5 mps 729 mmHg 94%
    15:00 +1°C° 0.1 mm 5 mps 729 mmHg 93%
    16:00 +1°C° 0.1 mm 5 mps 730 mmHg 93%
    17:00 +1°C° 0.1 mm 5 mps 730 mmHg 93%
    18:00 0°C° 0 mm 4 mps 730 mmHg 93%
    19:00 0°C° 0 mm 3 mps 730 mmHg 93%
    20:00 +1°C° 0 mm 2 mps 731 mmHg 93%
    21:00 +1°C° 0.2 mm 2 mps 730 mmHg 94%
    22:00 0°C° 0.2 mm 3 mps 730 mmHg 96%
    23:00 0°C° 0.2 mm 3 mps 730 mmHg 97%

    25 January, Saturday

    Time Temperature Precipitation Wind Pressure Humidity
    00:00 0°C° 0.2 mm 3 mps 729 mmHg 97%
    01:00 0°C° 0.2 mm 3 mps 729 mmHg 96%
    02:00 0°C° 0.2 mm 3 mps 729 mmHg 96%
    03:00 +1°C° 0.1 mm 3 mps 729 mmHg 95%
    04:00 +1°C° 0.1 mm 3 mps 729 mmHg 94%
    05:00 +1°C° 0.1 mm 3 mps 728 mmHg 93%
    06:00 +1°C° 0 mm 3 mps 728 mmHg 92%
    07:00 -1°C° 0 mm 4 mps 728 mmHg 91%
    08:00 -1°C° 0 mm 4 mps 728 mmHg 89%
    09:00 -1°C° 0 mm 4 mps 728 mmHg 87%
    10:00 -1°C° 0 mm 4 mps 728 mmHg 84%
    11:00 -1°C° 0 mm 5 mps 728 mmHg 81%
    12:00 -1°C° 0 mm 5 mps 728 mmHg 78%
    13:00 0°C° 0 mm 5 mps 727 mmHg 75%
    14:00 -1°C° 0 mm 6 mps 727 mmHg 72%
    15:00 -2°C° 0.2 mm 6 mps 727 mmHg 76%
    16:00 -2°C° 0.2 mm 7 mps 727 mmHg 81%
    17:00 -3°C° 0.2 mm 7 mps 728 mmHg 86%
    18:00 -4°C° 0.2 mm 7 mps 728 mmHg 80%
    19:00 -4°C° 0.2 mm 6 mps 729 mmHg 75%
    20:00 -5°C° 0.2 mm 5 mps 730 mmHg 69%
    21:00 -5°C° 0 mm 5 mps 730 mmHg 70%
    22:00 -5°C° 0 mm 5 mps 731 mmHg 71%
    23:00 -4°C° 0 mm 4 mps 731 mmHg 72%

    26 January, Sunday

    Time Temperature Precipitation Wind Pressure Humidity
    00:00 -5°C° 0 mm 4 mps 732 mmHg 74%
    01:00 -5°C° 0 mm 4 mps 732 mmHg 76%
    02:00 -5°C° 0 mm 4 mps 733 mmHg 78%
    03:00 -5°C° 0 mm 4 mps 733 mmHg 79%
    04:00 -5°C° 0 mm 4 mps 734 mmHg 79%
    05:00 -5°C° 0 mm 4 mps 734 mmHg 80%
    06:00 -5°C° 0 mm 4 mps 735 mmHg 80%
    07:00 -4°C° 0 mm 4 mps 735 mmHg 80%
    08:00 -4°C° 0 mm 3 mps 736 mmHg 80%
    09:00 -4°C° 0 mm 3 mps 736 mmHg 78%
    10:00 -2°C° 0 mm 3 mps 737 mmHg 77%
    11:00 -2°C° 0 mm 3 mps 737 mmHg 75%
    12:00 -2°C° 0 mm 3 mps 738 mmHg 76%
    13:00 -1°C° 0 mm 2 mps 738 mmHg 77%
    14:00 -1°C° 0 mm 2 mps 739 mmHg 77%
    15:00 -2°C° 0 mm 2 mps 739 mmHg 83%
    16:00 -1°C° 0 mm 1 mps 739 mmHg 88%
    17:00 -1°C° 0 mm 1 mps 739 mmHg 93%
    18:00 -1°C° 0 mm 1 mps 739 mmHg 94%
    19:00 -2°C° 0 mm 1 mps 740 mmHg 95%
    20:00 -2°C° 0 mm 1 mps 740 mmHg 96%
    21:00 -2°C° 0 mm 1 mps 740 mmHg 96%
    22:00 -1°C° 0 mm 1 mps 740 mmHg 97%
    23:00 -3°C° 0 mm 2 mps 740 mmHg 97%

    27 January, Monday

    Time Temperature Precipitation Wind Pressure Humidity
    00:00 -3°C° 0.1 mm 2 mps 740 mmHg 96%
    01:00 -3°C° 0.1 mm 2 mps 740 mmHg 96%
    02:00 -2°C° 0.1 mm 3 mps 740 mmHg 96%
    03:00 -2°C° 0.2 mm 3 mps 740 mmHg 96%
    04:00 -2°C° 0.2 mm 3 mps 739 mmHg 96%
    05:00 -2°C° 0.2 mm 3 mps 739 mmHg 96%
    06:00 -2°C° 0.2 mm 3 mps 738 mmHg 96%
    07:00 -3°C° 0.2 mm 4 mps 738 mmHg 96%
    08:00 -2°C° 0.2 mm 4 mps 738 mmHg 96%
    09:00 -2°C° 0.1 mm 4 mps 738 mmHg 95%
    10:00 -2°C° 0.1 mm 4 mps 738 mmHg 94%
    11:00 -2°C° 0.1 mm 4 mps 738 mmHg 93%
    12:00 -2°C° 0 mm 4 mps 737 mmHg 93%
    13:00 -1°C° 0 mm 4 mps 737 mmHg 93%
    14:00 -1°C° 0 mm 4 mps 736 mmHg 93%
    15:00 -2°C° 0.1 mm 4 mps 736 mmHg 94%
    16:00 -2°C° 0.1 mm 4 mps 735 mmHg 95%
    17:00 -2°C° 0.1 mm 4 mps 735 mmHg 97%
    18:00 -2°C° 0.2 mm 4 mps 735 mmHg 97%
    19:00 -2°C° 0.2 mm 4 mps 734 mmHg 96%
    20:00 -2°C° 0.2 mm 4 mps 734 mmHg 96%
    21:00 -2°C° 0.2 mm 4 mps 733 mmHg 96%
    22:00 -2°C° 0.2 mm 4 mps 733 mmHg 96%
    23:00 -2°C° 0.2 mm 4 mps 733 mmHg 96%
    Show more